EHI
0 0 0 0 0 0 0 0 0 0 0 0 0 0 0 0 0 0 0 0 0 0 0 0 0 0 0 0 0 0 0 0 0 0 0 0 0 0 0 0 0 0 0 0
0 0 0 0 0 0 0 0 0 0 0 0 0 0 0 0 0 0 0 0 0 0 0 0 0 0 0 0 0 0 0 0 0 0 0 0 0 0 0 0 0 0 0 0
0 0 0 0 0 0 0 0 0 0 0 0 0 0 0 0 0 0 0 0 0 0 0 0 0 0 0 0 0 0 0 0 0 0 0 0 0 0 0 0 0 0 0 0
0 0 0 0 0 0 0 0 0 0 0 0 0 0 0 0 0 0 0 0 0 0 0 0 0 0 0 0 0 0 0 0 0 0 0 0 0 0 0 0 0 0 0 0
0 0 0 0 0 0 0 0 0 0 0 0 0 0 0 0 0 0 0 0 0 0 0 0 0 0 0 0 0 0 0 0 0 0 0 0 0 0 0 0 0 0 0 0
0 0 0 0 0 0 0 0 0 0 0 0 0 0 0 0 0 0 0 0 0 0 0 0 0 0 0 0 0 0 0 0 0 0 0 0 0 0 0 0 0 0 0 0
0 0 0 0 0 0 0 0 0 0 0 0 0 0 0 0 0 0 0 0 0 0 0 0 0 0 0 0 0 0 0 0 0 0 0 0 0 0 0 0 0 0 0 0
0 0 0 0 0 0 0 0 0 0 0 0 0 0 0 0 0 0 0 0 0 0 0 0 0 0 0 0 0 0 0 0 0 0 0 0 0 0 0 0 0 0 0 0
0 0 0 0 0 0 0 0 0 0 0 0 0 0 0 0 0 0 0 0 0 0 0 0 0 0 0 0 0 0 0 0 0 0 0 0 0 0 0 0 0 0 0 0
0 0 0 0 0 0 0 0 0 0 0 0 0 0 0 0 0 0 0 0 0 0 0 0 0 0 0 0 0 0 0 0 0 0 0 0 0 0 0 0 0 0 0 0
0 0 0 0 0 0 0 0 0 0 0 0 0 0 0 0 0 0 0 0 0 0 0 0 0 0 0 0 0 0 0 0 0 0 0 0 0 0 0 0 0 0 0 0
0 0 0 0 0 0 0 0 0 0 0 0 0 0 0 0 0 0 0 0 0 0 0 0 0 0 0 0 0 0 0 0 0 0 0 0 0 0 0 0 0 0 0 0
0 0 0 0 0 0 0 0 0 0 0 0 0 0 0 0 0 0 0 0 0 0 0 0 0 0 0 0 0 0 0 0 0 0 0 0 0 0 0 0 0 0 0 0
0 0 0 0 0 0 0 0 0 0 0 0 0 0 0 0 0 0 0 0 0 0 0 0 0 0 0 0 0 0 0 0 0 0 0 0 0 0 0 0 0 0 0 0
0 0 0 0 0 0 0 0 0 0 0 0 0 0 0 0 0 0 0 0 0 0 0 0 0 0 0 0 0 0 0 0 0 0 0 0 0 0 0 0 0 0 0 0
0 0 0 0 0 0 0 0 0 0 0 0 0 0 0 0 0 0 0 0 0 0 0 0 0 0 0 0 0 0 0 0 0 0 0 0 0 0 0 0 0 0 0 0
0 0 0 0 0 0 0 0 0 0 0 0 0 0 0 0 0 0 0 0 0 0 0 0 0 0 0 0 0 0 0 0 0 0 0 0 0 0 0 0 0 0 0 0
0 0 0 0 0 0 0 0 0 0 0 0 0 0 0 0 0 0 0 0 0 0 0 0 0 0 0 0 0 0 0 0 0 0 0 0 0 0 0 0 0 0 0 0
0 0 0 0 0 0 0 0 0 0 0 0 0 0 0 0 0 0 0 0 0 0 0 0 0 0 0 0 0 0 0 0 0 0 0 0 0 0 0 0 0 0 0 0
0 0 0 0 0 0 0 0 0 0 0 0 0 0 0 0 0 0 0 0 0 0 0 0 0 0 0 0 0 0 0 0 0 0 0 0 0 0 0 0 0 0 0 0
0 0 0 0 0 0 0 0 0 0 0 0 0 0 0 0 0 0 0 0 0 0 0 0 0 0 0 0 0 0 0 0 0 0 0 0 0 0 0 0 0 0 0 0
0 0 0 0 0 0 0 0 0 0 0 0 0 0 0 0 0 0 0 0 0 0 0 0 0 0 0 0 0 0 0 0 0 0 0 0 0 0 0 0 0 0 0 0
0 0 0 0 0 0 0 0 0 0 0 0 0 0 0 0 0 0 0 0 0 0 0 0 0 0 0 0 0 0 0 0 0 0 0 0 0 0 0 0 0 0 0 0
0 0 0 0 0 0 0 0 0 0 0 0 0 0 0 0 0 0 0 0 0 0 0 0 0 0 0 0 0 0 0 0 0 0 0 0 0 0 0 0 0 0 0 0
0 0 0 0 0 0 0 0 0 0 0 0 0 0 0 0 0 0 0 0 0 0 0 0 0 0 0 0 0 0 0 0 0 0 0 0 0 0 0 0 0 0 0 0
0 0 0 0 0 0 0 0 0 0 0 0 0 0 0 0 0 0 0 0 0 0 0 0 0 0 0 0 0 0 0 0 0 0 0 0 0 0 0 0 0 0 0 0
0 0 0 0 0 0 0 0 0 0 0 0 0 0 0 0 0 0 0 0 0 0 0 0 0 0 0 0 0 0 0 0 0 0 0 0 0 0 0 0 0 0 0 0
Wind_Speed
11 11 11 13 13 11 13 13 15 17 18 16 8 4 5 5 5 5 5 5 4 5 6 6 6 6 6 6 5 5 5 7 7 8 8 8 8 8 9 9 10 9 10 11
10 11 12 17 18 16 16 15 15 16 16 6 2 4 5 6 7 7 6 5 6 7 7 7 7 6 6 6 6 5 6 8 8 8 8 9 9 9 9 10 9 9 10 11
6 6 10 13 12 11 8 7 7 9 6 3 4 5 6 7 8 7 5 6 7 7 7 7 7 6 7 7 6 6 8 9 9 9 10 10 10 10 10 10 10 10 11 11
4 4 10 11 5 3 3 5 6 6 3 4 3 3 5 7 6 7 8 8 8 7 7 7 7 7 7 6 7 8 9 10 10 10 10 10 10 10 10 9 9 10 10 11
3 5 11 10 5 2 2 5 3 2 4 5 6 6 6 6 7 8 8 8 7 7 6 7 7 7 6 7 8 9 10 11 10 9 9 9 10 11 10 9 9 9 8 9
4 5 8 6 2 3 3 3 4 5 5 7 8 7 6 7 8 8 8 7 7 7 7 7 7 6 8 9 10 11 11 10 8 8 9 10 11 11 9 9 10 9 9 9
6 6 10 4 3 1 2 2 3 5 6 6 5 6 8 9 8 8 8 8 7 7 6 7 7 8 10 11 11 11 9 9 9 9 10 11 11 9 9 9 9 9 10 9
5 6 9 1 2 1 4 5 6 6 6 7 7 9 9 9 8 8 7 7 7 7 7 7 8 9 11 12 11 10 10 10 10 10 10 9 11 10 9 9 10 10 9 9
6 7 3 1 3 5 6 7 7 7 8 8 9 9 10 8 7 7 7 7 6 7 9 9 8 9 13 14 12 11 10 11 11 11 10 10 10 11 9 8 8 8 8 9
5 5 6 8 8 7 8 8 8 8 9 8 9 9 9 8 7 6 6 7 7 8 10 12 11 11 12 12 11 11 11 11 10 11 11 10 8 8 8 8 8 9 9 9
9 9 9 5 7 10 10 10 10 9 8 8 8 8 8 7 6 6 7 7 7 9 12 14 13 12 11 11 11 11 11 11 10 10 11 10 9 8 10 9 10 12 9 8
10 8 8 9 9 10 10 9 9 9 9 7 7 8 7 6 6 7 8 9 9 10 11 13 13 13 12 10 10 11 10 10 9 9 9 9 10 11 14 16 21 23 21 18
6 7 7 9 8 7 7 8 8 8 8 8 6 6 6 6 7 8 9 10 11 12 13 14 13 13 11 10 10 10 11 11 10 9 9 10 10 11 12 13 17 19 19 20
6 6 7 6 7 7 7 7 7 7 7 6 6 6 7 8 9 10 11 11 13 14 14 13 13 13 12 11 10 11 11 13 13 10 10 10 10 10 10 11 11 9 11 17
5 5 7 7 6 6 6 6 7 7 7 7 6 7 9 10 11 12 12 13 13 13 12 13 14 15 13 11 11 11 11 10 10 10 10 10 10 10 10 11 10 10 7 9
6 6 6 6 6 6 6 7 7 8 8 8 8 9 10 11 12 13 13 11 12 13 13 14 14 14 12 11 11 10 10 17 17 12 10 10 9 9 9 9 10 9 8 7
4 5 5 6 7 7 6 6 7 8 9 10 11 11 12 12 13 13 12 11 11 13 13 14 14 13 11 10 10 10 10 12 18 13 10 10 9 9 9 9 9 8 7 8
4 5 5 6 6 7 8 7 8 9 10 11 12 12 11 12 14 15 14 13 13 13 13 13 12 12 11 11 10 9 10 10 10 10 10 9 10 9 9 9 9 9 7 7
5 6 6 6 6 7 8 9 10 10 10 10 11 11 12 12 13 13 13 13 15 16 13 10 19 15 11 12 15 9 10 11 11 10 9 13 12 8 8 8 8 7 6 5
7 7 8 8 8 8 10 10 11 10 9 9 10 12 13 13 12 13 13 13 11 11 12 14 14 11 11 11 17 10 10 12 12 11 10 9 9 9 8 7 7 6 5 4
8 9 9 10 10 10 10 10 9 11 10 10 10 13 14 13 12 11 12 13 11 11 12 19 12 10 10 13 18 10 10 11 11 10 10 9 9 8 7 7 6 5 4 3
8 8 10 10 10 10 8 7 9 11 12 11 11 11 12 13 12 11 11 11 12 17 13 9 9 15 19 21 11 10 10 11 10 9 9 8 8 8 7 6 5 4 3 2
8 8 9 10 10 10 10 9 10 10 11 11 11 12 13 12 10 11 13 9 9 18 15 10 17 26 28 15 9 10 11 10 10 9 8 8 7 7 6 5 4 3 2 1
9 9 9 9 9 10 13 12 10 9 10 11 10 11 11 10 9 8 9 16 20 22 13 16 26 27 24 10 9 9 9 9 9 8 7 6 6 5 5 4 3 2 1 1
9 9 9 9 9 9 10 10 9 9 9 8 9 9 8 7 8 9 9 11 18 20 12 16 24 24 15 10 10 10 9 9 9 8 6 5 5 5 4 3 3 2 1 0
9 9 8 9 8 8 7 7 7 7 7 8 7 6 6 6 8 9 9 10 13 18 13 10 12 15 11 10 10 10 9 9 8 6 5 5 5 4 3 3 2 1 1 0
9 8 7 7 7 6 6 6 7 7 7 8 9 8 7 7 8 9 10 9 10 10 10 10 10 10 10 10 10 9 8 7 6 5 4 4 3 3 2 2 1 1 1 0
Wind_Direction
271 284 291 287 280 271 260 257 264 273 279 290 309 356 21 12 2 347 325 322 337 336 323 318 318 321 325 322 323 324 311 298 288 284 281 279 276 270 264 256 251 245 242 240
274 277 281 279 271 265 263 260 261 271 278 294 6 38 13 357 335 310 304 326 338 327 318 317 318 317 318 313 308 311 304 293 289 289 286 282 278 275 270 264 257 250 245 242
275 296 305 275 261 254 242 241 256 272 289 14 22 22 358 327 301 299 327 336 325 318 317 315 312 311 306 296 302 306 294 288 286 283 280 277 277 276 271 267 262 255 250 244
285 309 251 249 284 280 278 287 297 296 333 33 19 348 314 299 321 343 337 326 321 317 313 308 303 301 296 302 305 297 290 285 281 276 274 275 273 271 270 267 262 258 255 249
252 265 275 273 287 332 318 291 305 332 11 1 339 327 310 332 353 333 323 319 315 311 308 306 304 306 315 310 301 294 287 282 278 275 277 278 276 274 272 270 267 261 257 250
221 234 254 276 77 39 13 294 36 29 356 339 344 324 302 332 329 321 319 316 311 310 309 307 308 322 317 302 295 288 284 282 285 287 285 282 280 279 276 271 270 268 263 255
234 245 262 280 126 72 265 294 358 349 335 333 316 287 302 321 319 313 309 309 310 311 307 304 314 315 300 293 288 287 291 294 294 290 285 284 284 281 279 276 274 271 269 263
201 220 254 148 124 243 291 329 336 340 338 326 312 309 312 312 312 312 311 311 313 311 308 307 306 303 298 295 293 295 296 294 292 290 289 290 287 286 281 279 279 276 275 273
203 222 270 68 327 324 343 343 347 342 332 325 315 310 311 311 312 312 311 311 315 314 306 301 300 299 296 296 298 299 298 296 295 294 291 289 289 291 290 285 280 279 275 275
277 282 312 322 328 348 358 347 337 333 328 323 313 312 313 312 310 309 311 313 311 308 303 300 298 292 288 295 300 300 298 297 295 295 294 291 288 287 286 284 280 279 278 276
280 289 300 314 344 347 343 340 335 330 324 318 314 310 308 307 308 310 308 303 301 297 294 294 296 295 295 297 299 298 295 295 295 293 291 292 287 283 284 271 273 280 276 270
279 309 317 321 337 342 336 331 326 321 317 314 308 302 305 304 303 300 298 297 296 292 290 295 298 297 297 296 297 298 298 297 295 293 293 292 292 291 284 283 290 288 284 279
315 335 323 318 330 336 321 316 315 310 304 304 304 303 305 299 295 294 295 296 296 296 296 297 298 298 300 302 300 296 294 295 295 293 293 292 292 294 298 298 293 291 291 289
332 333 319 323 316 313 311 310 305 299 297 298 302 304 301 296 295 295 296 295 294 294 295 297 300 302 304 304 300 294 293 295 296 292 290 289 289 291 293 296 300 293 289 290
336 331 307 304 305 313 316 312 310 306 305 305 305 301 297 296 295 295 294 293 293 295 298 301 302 301 302 300 296 295 296 295 292 289 287 287 288 288 287 288 290 292 290 288
320 314 309 311 313 316 321 322 316 309 307 303 301 296 293 290 291 292 294 297 303 303 302 299 297 297 299 297 295 297 295 296 298 294 291 290 289 288 289 289 290 290 289 286
306 305 311 312 312 314 315 314 308 304 303 300 297 295 294 295 297 299 301 301 295 294 295 294 295 296 296 295 296 298 295 295 297 295 292 291 290 290 289 289 289 288 286 282
263 270 277 283 290 296 298 297 295 294 292 291 293 295 298 302 302 301 302 303 302 297 294 291 292 299 297 298 297 294 294 293 293 293 293 293 292 290 289 288 288 289 288 287
266 271 276 280 282 284 286 288 288 285 286 290 295 298 297 295 295 298 303 305 304 303 300 293 303 308 301 300 304 296 295 296 297 294 293 296 298 291 288 288 287 285 285 285
270 273 275 277 277 275 278 281 284 288 293 298 299 298 297 296 296 298 299 295 291 289 294 302 305 301 300 300 305 299 297 297 297 297 297 295 294 292 290 289 288 288 286 279
267 272 273 274 275 273 273 280 291 297 298 296 293 293 294 295 295 296 298 299 296 293 300 308 309 303 304 306 308 301 298 298 299 300 300 299 297 295 293 293 293 290 283 271
265 268 272 275 280 284 285 287 289 292 294 292 289 289 294 297 296 293 285 288 296 305 310 304 303 305 311 313 305 301 300 299 298 297 297 296 296 297 297 296 294 291 280 259
273 276 281 284 286 289 291 287 284 283 284 286 288 290 290 290 293 296 300 298 300 308 312 303 308 312 315 315 304 302 301 299 298 298 298 298 299 301 302 300 298 294 280 257
274 275 276 278 282 286 287 286 280 275 275 277 277 278 283 290 291 283 286 303 311 312 310 308 313 315 318 312 303 302 301 299 298 298 300 302 304 303 301 301 301 298 280 240
269 270 273 275 277 276 277 282 285 282 279 278 278 277 277 279 289 298 300 302 308 313 310 311 314 316 315 305 304 303 302 300 302 305 307 309 307 306 305 306 309 308 296 260
269 269 268 265 265 270 274 276 278 280 284 289 290 288 287 289 292 297 301 302 302 309 311 309 310 311 310 307 306 306 306 307 309 311 308 307 310 313 316 320 322 323 323 325
269 268 271 272 269 264 264 266 272 278 281 287 293 295 296 297 297 300 301 304 306 307 308 309 310 309 309 308 308 308 306 306 306 305 307 311 314 315 322 326 328 335 350 6